Location: 81360 Arifat, France
(43.7204°N, 2.3408°E)
Time: 23:09:24
(UTC+01:00)

S-56A Canister/Altair - Visible Passes

Search period start: 05 December 2025 00:00
Search period end: 15 December 2025 00:00
Orbit: 632 x 2485 km, 38.9° (Epoch: 05 December)

Date Brightness Start Highest point End Pass type
(mag) Time Alt. Az. Time Alt. Az. Time Alt. Az.
05 Dec 10.1 03:43:37 38° SE 03:43:37 38° SE 03:51:21 10° ESE visible
05 Dec 10.0 05:40:54 29° WSW 05:44:03 34° SSW 05:55:37 10° SSE visible
06 Dec 10.7 03:10:52 25° ESE 03:10:52 25° ESE 03:15:33 10° ESE visible
06 Dec 9.9 05:08:09 36° SW 05:08:47 36° SSW 05:20:14 10° SSE visible
06 Dec 10.9 07:07:52 10° WSW 07:13:08 14° SW 07:19:00 10° SSW visible
07 Dec 11.1 02:38:09 15° ESE 02:38:09 15° ESE 02:39:46 10° ESE visible
07 Dec 10.0 04:35:25 36° S 04:35:25 36° S 04:44:46 10° SE visible
07 Dec 10.7 06:32:42 11° WSW 06:37:56 16° SW 06:44:50 10° S visible
08 Dec 10.4 04:02:43 30° SSE 04:02:43 30° SSE 04:09:14 10° SE visible
08 Dec 10.6 05:59:59 16° SW 06:02:45 18° SW 06:10:19 10° S visible
09 Dec 10.8 03:30:02 21° SE 03:30:02 21° SE 03:33:40 10° SE visible
09 Dec 10.5 05:27:19 20° SW 05:27:34 20° SW 05:35:33 10° S visible
10 Dec 11.2 02:57:22 12° SE 02:57:22 12° SE 02:58:06 10° SE visible
10 Dec 10.6 04:54:38 20° SSW 04:54:38 20° SSW 05:00:36 10° S visible
11 Dec 10.8 04:21:58 17° S 04:21:58 17° S 04:25:32 10° SSE visible
12 Dec 11.1 03:49:18 12° SSE 03:49:18 12° SSE 03:50:23 10° SSE visible
14 Dec 9.5 19:45:17 10° S 19:46:16 13° S 19:46:16 13° S visible
